Location: Puketoi
(40.5833°S, 176.0167°E)
Time: 14:05:21
(UTC+00:00)

CZ-2D R/B - Pass Details

Date: 08 February 2023
Orbit: 790 x 845 km, 98.8° (Epoch: 22 March)

Event Time Altitude Azimuth Distance (km) Brightness Sun altitude
Exits shadow 13:03:04 41° 185° (S) 1,157 3.2 -33.9°
Drops below altitude 10° 13:06:30 10° 191° (S) 2,408 5.3 -33.8°
Sets 13:08:52 0° 192° (SSW) 3,353 6.2 -33.7°
